| time (UTC) | temp F | wind direction | speed MPH | gust MPH | rain 1hr in | rain 24hr in | rain mn in | humidity % | barometer mb |
| 20260510045717 | 67 | 0.0 | 0.0 | 0.00 | 0.01 | 0.00 | 94 | 1014.6 | |
| 20260510044718 | 67 | 0.0 | 0.0 | 0.00 | 0.01 | 0.00 | 94 | 1014.7 | |
| 20260510043717 | 67 | 0.0 | 0.0 | 0.00 | 0.01 | 0.00 | 94 | 1014.4 | |
| 20260510042717 | 67 | 0.0 | 0.0 | 0.00 | 0.01 | 0.00 | 94 | 1014.3 | |
| 20260510041718 | 67 | 0.0 | 0.0 | 0.00 | 0.01 | 0.00 | 94 | 1014.2 | |
| 20260510040717 | 67 | 0.0 | 0.0 | 0.00 | 0.01 | 0.00 | 94 | 1014.1 | |
| 20260510035718 | 67 | 0.0 | 0.0 | 0.00 | 0.01 | 0.01 | 94 | 1014.1 | |
| 20260510001337 | 70 | 0.0 | 0.0 | 0.00 | 0.03 | 0.01 | 89 | 1012.7 | |
| 20260510000616 | 70 | 0.0 | 0.0 | 0.00 | 0.03 | 0.01 | 89 | 1012.7 | |
| 20260509235617 | 70 | 0.0 | 0.0 | 0.00 | 0.03 | 0.01 | 88 | 1012.2 | |
| 20260509234616 | 71 | 0.0 | 0.0 | 0.00 | 0.03 | 0.01 | 88 | 1012.4 | |
| 20260509233616 | 71 | 0.0 | 0.0 | 0.00 | 0.03 | 0.01 | 87 | 1012.3 | |
| 20260509232617 | 71 | 0.0 | 0.0 | 0.00 | 0.03 | 0.01 | 86 | 1012.2 | |
| 20260509231616 | 71 | 0.0 | 0.0 | 0.00 | 0.03 | 0.01 | 86 | 1012.1 | |
| 20260509230616 | 72 | 0.0 | 0.0 | 0.00 | 0.03 | 0.01 | 85 | 1012.4 | |
| 20260509225617 | 72 | 0.0 | 0.0 | 0.00 | 0.03 | 0.01 | 84 | 1011.9 | |
| 20260509224616 | 72 | 0.0 | 0.0 | 0.00 | 0.03 | 0.01 | 85 | 1012.0 | |
| 20260509223618 | 72 | 45 | 1.0 | 1.0 | 0.00 | 0.03 | 0.01 | 84 | 1011.9 |
| 20260509222616 | 73 | 0.0 | 0.0 | 0.00 | 0.03 | 0.01 | 84 | 1011.7 | |
| 20260509221616 | 73 | 0.0 | 0.0 | 0.00 | 0.03 | 0.01 | 84 | 1012.0 | |
| 20260509220616 | 73 | 0.0 | 1.0 | 0.00 | 0.03 | 0.01 | 84 | 1011.9 | |
| 20260509215616 | 72 | 0.0 | 1.0 | 0.00 | 0.03 | 0.01 | 85 | 1011.9 | |
| 20260509214617 | 73 | 0.0 | 1.0 | 0.00 | 0.03 | 0.01 | 84 | 1011.8 | |
| 20260509213617 | 73 | 0.0 | 1.0 | 0.00 | 0.03 | 0.01 | 83 | 1011.9 | |
| 20260509212617 | 73 | 0.0 | 0.0 | 0.00 | 0.03 | 0.01 | 83 | 1011.9 | |
| 20260509211618 | 73 | 0.0 | 0.0 | 0.00 | 0.03 | 0.01 | 83 | 1011.9 | |
| 20260509210617 | 73 | 0.0 | 0.0 | 0.00 | 0.03 | 0.01 | 83 | 1012.5 | |
| 20260509205618 | 73 | 0.0 | 0.0 | 0.00 | 0.03 | 0.01 | 84 | 1012.6 | |
| 20260509204618 | 73 | 0.0 | 0.0 | 0.00 | 0.03 | 0.01 | 81 | 1012.5 | |
| 20260509203616 | 73 | 0.0 | 0.0 | 0.00 | 0.03 | 0.01 | 80 | 1012.2 | |
| 20260509202616 | 74 | 0.0 | 0.0 | 0.00 | 0.03 | 0.01 | 81 | 1012.1 | |
| 20260509201617 | 74 | 0.0 | 0.0 | 0.00 | 0.03 | 0.01 | 81 | 1012.0 | |
| 20260509200616 | 73 | 0.0 | 0.0 | 0.00 | 0.03 | 0.01 | 80 | 1012.2 | |
| 20260509195616 | 73 | 0.0 | 0.0 | 0.00 | 0.03 | 0.01 | 80 | 1012.3 | |
| 20260509194616 | 73 | 0.0 | 0.0 | 0.00 | 0.03 | 0.01 | 81 | 1012.4 | |
| 20260509193616 | 73 | 225 | 1.0 | 2.0 | 0.00 | 0.03 | 0.01 | 81 | 1012.6 |
| 20260509192616 | 72 | 0.0 | 1.0 | 0.00 | 0.03 | 0.01 | 83 | 1012.6 | |
| 20260509191616 | 72 | 23 | 1.0 | 1.0 | 0.00 | 0.03 | 0.01 | 83 | 1012.7 |
| 20260509190616 | 72 | 0 | 1.0 | 3.0 | 0.01 | 0.03 | 0.01 | 83 | 1012.8 |
| 20260509185616 | 72 | 0 | 2.0 | 4.0 | 0.01 | 0.03 | 0.01 | 83 | 1012.8 |
| 20260509184616 | 72 | 0 | 1.0 | 2.0 | 0.01 | 0.03 | 0.01 | 85 | 1013.0 |
| 20260509183616 | 72 | 0.0 | 1.0 | 0.01 | 0.03 | 0.01 | 85 | 1013.0 | |
| 20260509182616 | 72 | 23 | 1.0 | 2.0 | 0.01 | 0.03 | 0.01 | 84 | 1013.0 |
| 20260509181616 | 73 | 248 | 1.0 | 3.0 | 0.01 | 0.03 | 0.01 | 83 | 1012.9 |
| 20260509180616 | 74 | 0.0 | 0.0 | 0.00 | 0.02 | 0.00 | 81 | 1012.5 | |
| 20260509175617 | 75 | 0.0 | 1.0 | 0.00 | 0.02 | 0.00 | 77 | 1012.2 | |
| 20260509174616 | 76 | 0.0 | 1.0 | 0.00 | 0.02 | 0.00 | 76 | 1012.2 | |
| 20260509173616 | 76 | 0.0 | 1.0 | 0.00 | 0.02 | 0.00 | 76 | 1012.4 | |
| 20260509172616 | 77 | 0.0 | 1.0 | 0.00 | 0.02 | 0.00 | 76 | 1012.7 | |
| 20260509171617 | 77 | 0.0 | 1.0 | 0.00 | 0.02 | 0.00 | 74 | 1012.8 | |
| 20260509170616 | 77 | 0.0 | 1.0 | 0.00 | 0.02 | 0.00 | 73 | 1012.9 | |
| 20260509165617 | 78 | 23 | 1.0 | 1.0 | 0.00 | 0.02 | 0.00 | 71 | 1012.8 |
| 20260509164616 | 78 | 23 | 1.0 | 2.0 | 0.00 | 0.02 | 0.00 | 72 | 1012.9 |
| 20260509163616 | 78 | 0.0 | 1.0 | 0.00 | 0.02 | 0.00 | 72 | 1013.3 | |
| 20260509162616 | 79 | 0.0 | 1.0 | 0.00 | 0.02 | 0.00 | 70 | 1013.1 | |
| 20260509161616 | 80 | 0 | 2.0 | 4.0 | 0.00 | 0.02 | 0.00 | 68 | 1013.3 |
| 20260509160616 | 79 | 23 | 1.0 | 1.0 | 0.00 | 0.02 | 0.00 | 70 | 1013.2 |
| 20260509155616 | 79 | 338 | 1.0 | 2.0 | 0.00 | 0.02 | 0.00 | 71 | 1013.0 |
| 20260509154616 | 79 | 23 | 1.0 | 2.0 | 0.00 | 0.02 | 0.00 | 74 | 1013.1 |
| 20260509153616 | 78 | 23 | 1.0 | 2.0 | 0.00 | 0.02 | 0.00 | 75 | 1013.1 |
| 20260509152616 | 77 | 23 | 1.0 | 2.0 | 0.00 | 0.02 | 0.00 | 76 | 1013.3 |
| 20260509151616 | 78 | 0.0 | 1.0 | 0.00 | 0.02 | 0.00 | 76 | 1013.6 | |
| 20260509150616 | 77 | 23 | 1.0 | 2.0 | 0.00 | 0.02 | 0.00 | 79 | 1013.8 |
| 20260509145616 | 76 | 23 | 1.0 | 3.0 | 0.00 | 0.02 | 0.00 | 83 | 1013.7 |
| 20260509144616 | 73 | 0.0 | 1.0 | 0.00 | 0.02 | 0.00 | 87 | 1013.9 | |
| 20260509143616 | 73 | 23 | 1.0 | 2.0 | 0.00 | 0.02 | 0.00 | 87 | 1014.0 |
| 20260509142616 | 72 | 0.0 | 1.0 | 0.00 | 0.02 | 0.00 | 88 | 1013.9 | |
| 20260509141636 | 72 | 0.0 | 0.0 | 0.00 | 0.02 | 0.00 | 89 | 1013.8 | |
| 20260509140617 | 72 | 0.0 | 1.0 | 0.00 | 0.02 | 0.00 | 88 | 1013.8 | |
| 20260509135616 | 72 | 0.0 | 1.0 | 0.00 | 0.02 | 0.00 | 89 | 1013.8 | |
| 20260509134617 | 72 | 0.0 | 1.0 | 0.00 | 0.02 | 0.00 | 90 | 1013.7 | |
| 20260509133616 | 72 | 0.0 | 1.0 | 0.00 | 0.02 | 0.00 | 90 | 1013.6 | |
| 20260509132616 | 70 | 0.0 | 1.0 | 0.00 | 0.02 | 0.00 | 93 | 1013.4 | |
| 20260509131616 | 69 | 0.0 | 1.0 | 0.00 | 0.02 | 0.00 | 94 | 1013.5 | |
| 20260509130616 | 67 | 0.0 | 0.0 | 0.00 | 0.02 | 0.00 | 94 | 1013.6 | |
| 20260509125616 | 67 | 0.0 | 0.0 | 0.00 | 0.02 | 0.00 | 95 | 1013.6 | |
| 20260509124616 | 66 | 0 | 1.0 | 1.0 | 0.00 | 0.02 | 0.00 | 96 | 1013.7 |
| 20260509123636 | 66 | 0.0 | 0.0 | 0.00 | 0.02 | 0.00 | 96 | 1013.8 | |
| 20260509122636 | 65 | 0.0 | 0.0 | 0.00 | 0.02 | 0.00 | 96 | 1013.9 | |
| 20260509121616 | 65 | 0.0 | 0.0 | 0.00 | 0.02 | 0.00 | 96 | 1013.7 | |
| 20260509120616 | 65 | 0.0 | 0.0 | 0.00 | 0.02 | 0.00 | 96 | 1013.7 | |
| 20260509115616 | 65 | 0.0 | 0.0 | 0.00 | 0.02 | 0.00 | 96 | 1013.4 | |
| 20260509114616 | 64 | 0.0 | 0.0 | 0.00 | 0.02 | 0.00 | 96 | 1013.3 | |
| 20260509113616 | 63 | 0.0 | 0.0 | 0.00 | 0.02 | 0.00 | 96 | 1013.2 | |
| 20260509112616 | 63 | 0.0 | 0.0 | 0.00 | 0.02 | 0.00 | 96 | 1012.9 | |
| 20260509111616 | 62 | 0.0 | 0.0 | 0.00 | 0.02 | 0.00 | 96 | 1013.2 | |
| 20260509110616 | 62 | 0.0 | 0.0 | 0.00 | 0.02 | 0.00 | 96 | 1013.2 | |
| 20260509105616 | 62 | 0.0 | 0.0 | 0.00 | 0.02 | 0.00 | 96 | 1012.9 | |
| 20260509104616 | 62 | 0.0 | 0.0 | 0.00 | 0.02 | 0.00 | 96 | 1012.7 | |
| 20260509103616 | 62 | 0.0 | 0.0 | 0.00 | 0.02 | 0.00 | 96 | 1012.6 | |
| 20260509102617 | 62 | 0.0 | 0.0 | 0.00 | 0.02 | 0.00 | 96 | 1012.6 | |
| 20260509101616 | 62 | 0.0 | 0.0 | 0.00 | 0.02 | 0.00 | 96 | 1012.5 | |
| 20260509100616 | 61 | 0.0 | 0.0 | 0.00 | 0.02 | 0.00 | 96 | 1012.3 | |
| 20260509095616 | 61 | 0.0 | 0.0 | 0.00 | 0.02 | 0.00 | 96 | 1011.8 | |
| 20260509094616 | 62 | 0.0 | 0.0 | 0.00 | 0.02 | 0.00 | 95 | 1011.8 | |
| 20260509093617 | 62 | 0.0 | 0.0 | 0.00 | 0.02 | 0.00 | 95 | 1011.9 | |
| 20260509092616 | 62 | 0.0 | 0.0 | 0.00 | 0.02 | 0.00 | 95 | 1011.8 | |
| 20260509091615 | 62 | 0.0 | 0.0 | 0.00 | 0.02 | 0.00 | 95 | 1012.0 | |
| 20260509090616 | 63 | 0.0 | 0.0 | 0.00 | 0.02 | 0.00 | 95 | 1012.3 | |
| 20260509085638 | 63 | 0.0 | 0.0 | 0.00 | 0.02 | 0.00 | 95 | 1012.7 | |
| 20260509084618 | 63 | 0.0 | 0.0 | 0.00 | 0.02 | 0.00 | 95 | 1012.7 | |
| 20260509083618 | 63 | 0.0 | 0.0 | 0.00 | 0.02 | 0.00 | 95 | 1012.7 | |
| 20260509082618 | 63 | 0.0 | 0.0 | 0.00 | 0.02 | 0.00 | 95 | 1012.6 | |
| 20260509081618 | 63 | 0.0 | 0.0 | 0.00 | 0.02 | 0.00 | 95 | 1012.5 | |
| 20260509080638 | 63 | 0.0 | 0.0 | 0.00 | 0.02 | 0.00 | 95 | 1012.5 | |
| 20260509075618 | 64 | 0.0 | 1.0 | 0.00 | 0.02 | 0.00 | 95 | 1012.7 | |
| 20260509074658 | 64 | 0.0 | 0.0 | 0.00 | 0.02 | 0.00 | 95 | 1012.8 | |
| 20260509073638 | 64 | 0 | 1.0 | 1.0 | 0.00 | 0.02 | 0.00 | 95 | 1012.7 |
| 20260509072617 | 64 | 0.0 | 0.0 | 0.00 | 0.02 | 0.00 | 95 | 1012.8 | |
| 20260509071618 | 64 | 0.0 | 0.0 | 0.00 | 0.02 | 0.00 | 95 | 1013.1 | |
| 20260509070618 | 64 | 0.0 | 0.0 | 0.00 | 0.02 | 0.00 | 95 | 1013.3 | |
| 20260509065618 | 64 | 0.0 | 0.0 | 0.00 | 0.02 | 0.00 | 95 | 1013.1 | |
| 20260509064618 | 64 | 0.0 | 1.0 | 0.00 | 0.02 | 0.00 | 95 | 1012.9 | |
| 20260509063618 | 64 | 0.0 | 0.0 | 0.00 | 0.02 | 0.00 | 95 | 1013.0 | |
| 20260509062618 | 64 | 0.0 | 0.0 | 0.00 | 0.02 | 0.00 | 95 | 1013.0 | |
| 20260509061618 | 64 | 0.0 | 0.0 | 0.00 | 0.02 | 0.00 | 95 | 1013.1 | |
| 20260509060617 | 64 | 0.0 | 0.0 | 0.00 | 0.02 | 0.00 | 95 | 1013.4 | |
| 20260509055638 | 64 | 0.0 | 0.0 | 0.00 | 0.02 | 0.00 | 94 | 1014.0 | |
| 20260509054617 | 64 | 0.0 | 0.0 | 0.00 | 0.02 | 0.00 | 94 | 1014.0 | |
| 20260509053638 | 64 | 0.0 | 0.0 | 0.00 | 0.02 | 0.00 | 94 | 1014.1 | |
| 20260509052619 | 64 | 0.0 | 0.0 | 0.00 | 0.02 | 0.00 | 94 | 1013.9 | |
| 20260509051619 | 64 | 0.0 | 0.0 | 0.00 | 0.02 | 0.00 | 94 | 1014.5 | |
| 20260509050618 | 64 | 0.0 | 0.0 | 0.00 | 0.02 | 0.00 | 94 | 1013.9 |